sat.trackr.live / text

‹ back to catalog

STARLINK-32295

NORAD 62147 · 2024-224J

PAYLOAD ACTIVE UNKNOWN

§ Identity

Operator
Country
US
Launch date
2024-11-30
Launch site
AFETR
Launch vehicle
Mass (kg)
RCS (m²)

Purposes: comms

External: N2YO · Heavens-Above · Gunter

§ Orbital elements

Epoch: 2026-05-24T23:20:55.411584Z

Period
94.27 min
Inclination
42.9995°
Eccentricity
0.0001567
Mean motion
15.27591268 rev/d
Perigee alt
481.9 km
Apogee alt
484.1 km
Semi-major
6,861.2 km
B*
8.1683e-4
RAAN
87.5424°
Arg perigee
269.7067°
Mean anomaly
90.3605°
Rev number
8,403

§ Raw data

STARLINK-322951 62147U 24224J   26144.97286356  .00022291  00000+0  81683-3 0  99912 62147  42.9995  87.5424 0001567 269.7067  90.3605 15.27591268 84030

JSON: /api/v1/satellites/62147 · /tle

For live sub-satellite position, see the globe view (requires WebGL).

§ Visibility from observer

Set your observer location to see the next 7 days of passes ≥ 10°. The values pass through the URL so the page stays shareable.

No JS? Fill the form by hand. The geolocation button needs JavaScript.